This demonstration page uses our WeatherBlox Daily Observations layout. Learn more.

Left ArrowRight Arrow

40.92945, -100.16068

Hourly Observations for August 23, 2020

Temp ( °F °C ) Dew Point ( °F °C ) Humidity (%) Winds ( mph kmh ) Pressure ( in mb ) Visibility ( mi km ) Precip ( " mm )
12:15 am 00:15 Clear 73 22.7 63 17.3 72 72 Calm 29.85 1011 10 16.0934 0 0
12:35 am 00:35 Clear 73 22.5 63 17.1 72 72 Calm 29.85 1011 10 16.0934 0 0
12:55 am 00:55 Clear 72 22 63 17.2 74 74 S 3 6 29.86 1011 10 16.0934 0 0
1:15 am 01:15 Clear 72 22 63 17 73 73 Calm 29.86 1011 10 16.0934 0 0
1:35 am 01:35 Clear 71 21.8 63 17 74 74 Calm 29.87 1011 10 16.0934 0 0
1:55 am 01:55 Clear 71 21.7 63 17.1 75 75 SE 3 6 29.86 1011 10 16.0934 0 0
2:15 am 02:15 Clear 72 22 63 17.1 74 74 SSE 6 9 29.86 1011 10 16.0934 0 0
2:35 am 02:35 Clear 71 21.9 63 17 74 74 SSE 5 7 29.86 1011 10 16.0934 0 0
2:55 am 02:55 Clear 69 20.6 63 17 80 80 E 5 7 29.88 1012 10 16.0934 0 0
3:15 am 03:15 Clear 68 19.8 62 16.8 83 83 SE 3 6 29.87 1012 10 16.0934 0 0
3:35 am 03:35 Clear 66 19 62 16.8 87 87 E 3 6 29.89 1012 10 16.0934 0 0
3:55 am 03:55 Clear 66 18.7 62 16.7 88 88 SE 3 6 29.89 1012 10 16.0934 0 0
4:15 am 04:15 Partly Cloudy 65 18.6 62 16.7 89 89 Calm 29.89 1012 10 16.0934 0 0
4:35 am 04:35 Partly Cloudy 65 18.6 62 16.5 88 88 E 5 7 29.89 1012 10 16.0934 0 0
4:55 am 04:55 Partly Cloudy 65 18.1 61 16.3 89 89 E 6 9 29.9 1012 10 16.0934 0 0
5:15 am 05:15 Partly Cloudy 66 19 62 16.7 87 87 E 6 9 29.89 1012 10 16.0934 0 0
5:35 am 05:35 Partly Cloudy 67 19.2 62 16.7 86 86 E 3 6 29.89 1012 10 16.0934 0 0
5:55 am 05:55 Clear 65 18.5 62 16.4 88 88 ESE 5 7 29.9 1012 10 16.0934 0 0
6:15 am 06:15 Clear 65 18.6 61 16.3 87 87 ESE 3 6 29.89 1012 10 16.0934 0 0
6:35 am 06:35 Clear 66 18.8 62 16.6 87 87 ESE 5 7 29.89 1012 10 16.0934 0 0
6:55 am 06:55 Clear 64 17.8 61 16.3 91 91 Calm 29.92 1013 10 16.0934 0 0
7:15 am 07:15 Sunny 64 17.5 61 16.2 92 92 E 3 6 29.92 1013 7 11.26538 0 0
7:35 am 07:35 Sunny 64 17.5 61 16.3 93 93 E 3 6 29.93 1014 7 11.26538 0 0
7:55 am 07:55 Sunny 65 18.5 62 16.9 90 90 E 3 6 29.93 1013 10 16.0934 0 0
8:15 am 08:15 Partly Cloudy 67 19.6 63 17.3 87 87 Calm 29.92 1013 10 16.0934 0 0
8:35 am 08:35 Partly Cloudy 68 20.2 64 17.7 86 86 Calm 29.91 1013 10 16.0934 0 0
8:55 am 08:55 Partly Cloudy 69 20.6 64 18 85 85 Calm 29.92 1013 10 16.0934 0 0
9:15 am 09:15 Sunny 71 21.6 64 18 80 80 Calm 29.92 1013 10 16.0934 0 0
9:35 am 09:35 Sunny 73 22.9 64 17.8 73 73 Calm 29.9 1012 10 16.0934 0 0
9:55 am 09:55 Partly Cloudy 75 24 64 18 69 69 Calm 29.89 1012 10 16.0934 0 0
10:15 am 10:15 Sunny 77 24.9 65 18.3 67 67 Calm 29.89 1012 10 16.0934 0 0
10:35 am 10:35 Sunny 78 25.4 65 18.4 65 65 SW 3 6 29.89 1012 10 16.0934 0 0
10:55 am 10:55 Sunny 80 26.4 65 18.4 62 62 Calm 29.88 1012 10 16.0934 0 0
11:15 am 11:15 Sunny 82 27.7 66 18.7 58 58 Calm 29.87 1011 10 16.0934 0 0
11:35 am 11:35 Sunny 84 28.7 67 19.2 56 56 SSE 3 6 29.86 1011 10 16.0934 0 0
11:55 am 11:55 Sunny 85 29.5 65 18.6 52 52 E 3 6 29.85 1011 10 16.0934 0 0
12:15 pm 12:15 Sunny 87 30.4 66 19 51 51 S 5 7 29.84 1010 10 16.0934 0 0
12:35 pm 12:35 Sunny 89 31.4 66 19 48 48 SE 7 11 29.82 1010 10 16.0934 0 0
12:55 pm 12:55 Sunny 90 32.2 68 19.8 48 48 S 5 7 29.81 1010 10 16.0934 0 0
1:15 pm 13:15 Sunny 91 32.9 66 19.1 44 44 ESE 8 13 29.81 1009 10 16.0934 0 0
1:35 pm 13:35 Sunny 91 33 66 18.8 43 43 SE 9 15 29.81 1009 10 16.0934 0 0
1:55 pm 13:55 Sunny 91 32.9 66 18.9 43 43 SE 8 13 29.81 1009 10 16.0934 0 0
2:15 pm 14:15 Sunny 92 33.3 67 19.5 44 44 SSE 7 11 29.8 1009 10 16.0934 0 0
2:35 pm 14:35 Sunny 93 33.9 66 18.8 41 41 SSE 8 13 29.8 1009 10 16.0934 0 0
2:55 pm 14:55 Sunny 92 33.6 67 19.6 44 44 SSE 9 15 29.8 1009 10 16.0934 0 0
3:15 pm 15:15 Sunny 94 34.5 67 19.5 41 41 SSE 10 17 29.78 1009 10 16.0934 0 0
3:35 pm 15:35 Sunny 94 34.6 65 18.6 39 39 SSE 10 17 29.78 1009 10 16.0934 0 0
3:55 pm 15:55 Sunny 95 35 64 17.7 36 36 SE 9 15 29.78 1008 10 16.0934 0 0
4:15 pm 16:15 Sunny 95 35 64 17.6 36 36 SE 10 17 29.77 1008 10 16.0934 0 0
4:35 pm 16:35 Sunny 95 34.8 64 17.6 36 36 SE 8 13 29.77 1008 10 16.0934 0 0
4:55 pm 16:55 Sunny 95 34.8 64 17.6 36 36 SE 10 17 29.76 1008 10 16.0934 0 0
5:15 pm 17:15 Sunny 95 35 63 17.3 35 35 SSE 12 19 29.76 1008 10 16.0934 0 0
5:35 pm 17:35 Sunny 95 35.1 63 17 34 34 SSE 12 19 29.76 1008 10 16.0934 0 0
5:55 pm 17:55 Sunny 95 35.1 63 17.3 35 35 SSE 10 17 29.76 1008 10 16.0934 0 0
6:15 pm 18:15 Sunny 95 34.8 63 17.2 35 35 SE 9 15 29.75 1008 10 16.0934 0 0
6:35 pm 18:35 Sunny 94 34.7 63 17.3 35 35 SSE 9 15 29.75 1008 10 16.0934 0 0
6:55 pm 18:55 Sunny 93 34.1 64 17.7 38 38 SSE 7 11 29.76 1008 10 16.0934 0 0
7:15 pm 19:15 Sunny 93 33.8 64 17.7 38 38 SSE 8 13 29.76 1008 10 16.0934 0 0
7:35 pm 19:35 Sunny 91 32.8 65 18.2 42 42 SSE 7 11 29.77 1008 10 16.0934 0 0
7:55 pm 19:55 Sunny 89 31.9 67 19.4 48 48 SE 6 9 29.77 1008 10 16.0934 0 0
8:15 pm 20:15 Sunny 88 30.9 68 20.1 53 53 SE 5 7 29.78 1009 10 16.0934 0 0
8:35 pm 20:35 Clear 85 29.5 69 20.5 58 58 ESE 6 9 29.8 1009 10 16.0934 0 0
8:55 pm 20:55 Clear 83 28.6 69 20.6 62 62 SE 5 7 29.81 1009 10 16.0934 0 0
9:15 pm 21:15 Clear 82 28 68 20.2 63 63 SSE 6 9 29.83 1010 10 16.0934 0 0
9:35 pm 21:35 Clear 81 27 67 19.2 62 62 SSE 8 13 29.84 1011 10 16.0934 0 0
9:55 pm 21:55 Clear 78 25.8 65 18.6 65 65 SSE 7 11 29.85 1011 10 16.0934 0 0
10:15 pm 22:15 Clear 77 25.2 65 18.1 65 65 SSE 6 9 29.87 1011 10 16.0934 0 0
10:35 pm 22:35 Clear 77 25.2 63 17.1 61 61 S 7 11 29.88 1012 10 16.0934 0 0
10:55 pm 22:55 Clear 77 25.2 62 16.7 59 59 SSE 8 13 29.88 1012 10 16.0934 0 0
11:15 pm 23:15 Clear 77 25.1 62 16.6 59 59 SSE 7 11 29.88 1012 10 16.0934 0 0
11:35 pm 23:35 Clear 76 24.6 61 16.3 60 60 S 8 13 29.88 1012 10 16.0934 0 0
11:55 pm 23:55 Clear 76 24.3 61 16 60 60 S 8 13 29.89 1012 10 16.0934 0 0

Powered by AerisWeather